Estación municipal de Queralbs (Ripollès, P.N.de les capçaleres del Ter i el Freser)

Consulta los datos en tiempo real de la estación municipal de Queralbs





Hora UTC 12:25
Temperatura 32.9 ºC
Humedad 20.9 %
Pluja 0.0 mm
Velocidad viento 12.4 km/h
Dirección viento SSE

Datos diarios 2026-09-06



Hora UTC (invierno +1h; verano +2h)
Temperatura (ºC) Humedad (%) Velocidad viento (km/h) Precipitación (mm)
Hora UTC Aire Humedad Vel. Dir. Vel. Max Dir. Intent. máx 5 min.
00:05 20.2 49.5 0.9 NNE 0.9 NE 0.0
00:10 20.2 50.0 1.3 W 2.8 W 0.0
00:15 20.2 49.7 0.7 WSW 2.8 WSW 0.0
00:20 20.0 51.1 0.2 SE 2.1 SE 0.0
00:25 19.9 50.3 0.0 NNE 0.0 SE 0.0
00:30 19.9 49.8 1.0 W 2.8 SE 0.0
00:35 19.9 49.7 0.1 WSW 1.4 SSE 0.0
00:40 20.1 49.6 0.3 WSW 1.8 WSW 0.0
00:45 20.1 49.4 0.0 NNW 1.1 N 0.0
00:50 20.2 49.1 0.9 S 2.8 SE 0.0
00:55 20.1 49.1 0.6 WNW 2.8 WNW 0.0
01:00 20.2 49.0 0.1 SSW 1.8 S 0.0
01:05 20.0 49.3 0.8 SSW 2.5 S 0.0
01:10 20.3 48.0 0.0 NNE 0.0 W 0.0
01:15 20.2 49.5 0.2 W 1.8 WNW 0.0
01:20 20.1 49.3 0.7 W 2.5 W 0.0
01:25 20.3 49.4 1.0 WSW 2.8 WSW 0.0
01:30 20.3 48.6 1.1 N 2.8 NNW 0.0
01:35 20.5 48.1 0.6 NW 3.5 NNW 0.0
01:40 20.3 48.1 0.5 NNE 2.5 NNW 0.0
01:45 20.3 48.1 2.0 NNW 4.2 NNW 0.0
01:50 20.2 49.7 0.0 SW 1.4 SSW 0.0
01:55 20.1 49.0 0.6 W 2.5 W 0.0
02:00 20.3 49.5 0.8 SW 2.5 SW 0.0
02:05 20.0 50.6 0.1 SW 1.8 SSW 0.0
02:10 20.0 50.0 0.0 NNE 0.0 WSW 0.0
02:15 20.0 49.9 0.1 WSW 1.4 WSW 0.0
02:20 19.9 49.6 0.3 NNW 2.5 WNW 0.0
02:25 20.1 49.4 0.8 NNW 3.2 NNW 0.0
02:30 20.0 49.4 0.3 SSE 2.1 S 0.0
02:35 20.2 48.9 0.0 NNE 0.0 SW 0.0
02:40 19.9 50.1 0.6 N 2.1 NNE 0.0
02:45 19.9 49.9 0.0 SSW 1.4 SSW 0.0
02:50 19.7 50.9 0.1 W 1.4 SSW 0.0
02:55 19.6 52.0 0.1 SW 1.4 SW 0.0
03:00 19.4 52.4 0.4 SSE 2.1 SSE 0.0
03:05 19.3 52.2 0.0 NNE 0.0 SW 0.0
03:10 19.2 52.4 0.0 NNE 0.0 WNW 0.0
03:15 19.2 52.1 0.0 NNE 0.0 W 0.0
03:20 19.3 52.0 0.0 NNE 0.0 SW 0.0
03:25 19.1 51.9 0.0 NNE 0.0 WSW 0.0
03:30 19.1 52.1 0.7 WSW 2.1 W 0.0
03:35 19.1 52.0 0.0 NNE 0.0 W 0.0
03:40 19.1 51.3 0.0 NNE 0.0 WSW 0.0
03:45 19.2 51.1 0.0 NNE 0.0 SW 0.0
03:50 19.2 50.1 0.0 NNE 0.0 WSW 0.0
03:55 19.5 48.8 0.0 NNE 0.0 NW 0.0
04:00 19.5 49.0 0.0 NNW 1.4 NNW 0.0
04:05 19.6 49.5 0.0 N 1.1 NNW 0.0
04:10 19.1 50.3 0.7 WSW 1.8 WSW 0.0
04:15 19.3 48.8 0.0 NNE 0.0 W 0.0
04:20 19.5 47.7 0.0 NNE 0.0 SSW 0.0
04:25 19.5 48.6 0.2 W 1.4 SW 0.0
04:30 19.4 48.7 0.1 SSW 2.1 S 0.0
04:35 19.2 48.7 1.4 SW 2.8 SSW 0.0
04:40 19.3 48.4 0.9 WSW 2.8 W 0.0
04:45 19.2 48.3 0.5 SE 2.8 NE 0.0
04:50 19.2 47.1 0.0 NNE 0.0 ESE 0.0
04:55 19.3 47.0 0.8 WSW 2.1 SW 0.0
05:00 19.5 46.2 0.1 SSW 1.4 WSW 0.0
05:05 19.5 45.0 0.0 NNE 0.0 SW 0.0
05:10 19.6 44.6 0.0 NNE 0.0 SW 0.0
05:15 19.9 44.3 0.4 NNW 2.1 NNW 0.0
05:20 19.6 45.2 0.7 SSW 3.2 SSW 0.0
05:25 19.6 45.3 0.3 NNW 1.8 NNW 0.0
05:30 19.8 44.1 1.3 W 3.5 WSW 0.0
05:35 19.7 44.6 1.0 SW 2.8 SW 0.0
05:40 19.6 46.1 0.2 WSW 2.5 WSW 0.0
05:45 19.4 45.5 0.3 SW 1.8 SW 0.0
05:50 19.8 44.5 1.5 WSW 3.2 WSW 0.0
05:55 19.9 44.8 0.5 WSW 2.1 WSW 0.0
06:00 20.2 43.8 0.2 NNE 2.1 NNE 0.0
06:05 20.4 43.3 1.0 NNE 2.8 N 0.0
06:10 20.4 44.4 0.0 NNE 0.0 NW 0.0
06:15 20.3 46.5 0.0 S 1.1 S 0.0
06:20 20.3 46.8 0.5 NNE 3.5 N 0.0
06:25 20.6 45.4 1.1 N 3.9 NNE 0.0
06:30 20.7 46.3 0.3 S 2.1 S 0.0
06:35 21.1 43.4 0.0 W 1.1 W 0.0
06:40 21.7 44.6 1.2 NE 3.2 NE 0.0
06:45 22.6 40.2 2.1 NNE 3.5 NE 0.0
06:50 23.2 38.4 2.6 NNE 3.5 NE 0.0
06:55 23.7 39.8 1.1 NNE 3.5 NE 0.0
07:00 24.3 38.5 1.7 ENE 3.9 ENE 0.0
07:05 24.3 41.9 0.1 NNE 1.8 N 0.0
07:10 24.7 38.8 1.0 ESE 3.2 ESE 0.0
07:15 24.9 38.9 1.1 SE 3.2 SE 0.0
07:20 24.9 37.5 0.1 S 1.4 SSW 0.0
07:25 25.5 40.3 1.4 SE 3.9 SSE 0.0
07:30 25.7 41.5 0.6 ESE 2.5 SE 0.0
07:35 25.7 42.0 1.0 SSE 2.5 SE 0.0
07:40 25.9 43.0 1.0 SSE 3.2 SE 0.0
07:45 26.2 40.6 1.0 SE 2.8 SE 0.0
07:50 26.3 42.0 2.3 ESE 3.9 ESE 0.0
07:55 26.1 40.3 1.5 E 4.2 E 0.0
08:00 26.2 36.7 2.8 E 4.2 E 0.0
08:05 26.5 40.8 1.3 SSE 4.9 SSW 0.0
08:10 26.5 38.8 2.4 ESE 3.5 ESE 0.0
08:15 27.0 38.0 2.3 E 4.2 ENE 0.0
08:20 27.1 35.2 3.2 ESE 6.4 SSE 0.0
08:25 27.8 34.7 3.6 SE 5.6 SSE 0.0
08:30 28.1 32.7 2.4 SSE 4.9 SSE 0.0
08:35 28.2 31.5 1.6 ESE 4.6 ESE 0.0
08:40 28.7 30.7 1.7 SE 4.2 ESE 0.0
08:45 28.9 29.0 1.3 ENE 5.6 SSE 0.0
08:50 29.0 32.3 2.6 E 4.9 SE 0.0
08:55 28.8 29.1 1.5 NNE 7.4 ENE 0.0
09:00 28.9 30.8 3.5 ESE 7.1 NE 0.0
09:05 29.2 30.6 2.8 SE 6.4 SSE 0.0
09:10 29.3 29.2 2.5 SE 7.8 S 0.0
09:15 29.3 29.5 4.5 ESE 8.1 SSE 0.0
09:20 29.4 29.2 2.4 ENE 6.7 ENE 0.0
09:25 29.5 28.8 3.1 ENE 7.8 ENE 0.0
09:30 29.5 28.7 3.0 E 10.6 S 0.0
09:35 29.9 28.3 7.1 SSE 14.5 SSE 0.0
09:40 30.5 26.9 8.6 SE 17.6 S 0.0
09:45 30.9 25.5 11.0 SSE 21.9 SSE 0.0
09:50 31.3 23.8 11.3 SSE 20.5 S 0.0
09:55 31.6 23.6 9.4 SSE 22.2 SSE 0.0
10:00 31.9 22.8 8.4 SE 28.2 SE 0.0
10:05 31.9 20.6 12.5 SE 24.7 SSE 0.0
10:10 32.3 20.6 8.7 S 18.4 SSE 0.0
10:15 32.2 19.4 6.9 SSE 13.8 S 0.0
10:20 32.5 19.3 11.8 S 23.3 S 0.0
10:25 32.5 19.0 10.5 SSE 23.3 SSE 0.0
10:30 32.7 19.3 10.7 SSE 20.1 S 0.0
10:35 32.7 18.8 11.0 S 22.2 S 0.0
10:40 32.7 18.7 13.4 SSE 24.7 S 0.0
10:45 32.8 18.9 10.3 SSE 18.0 S 0.0
10:50 33.0 19.5 7.9 SE 15.5 SE 0.0
10:55 33.0 19.1 10.6 SSE 19.8 SE 0.0
11:00 32.8 19.9 12.8 SSE 21.9 S 0.0
11:05 32.9 19.0 10.4 SE 17.3 ESE 0.0
11:10 32.8 20.3 8.9 SSE 19.1 SSE 0.0
11:15 32.9 20.2 9.4 SSE 19.1 SE 0.0
11:20 32.9 20.4 12.2 SSE 21.9 S 0.0
11:25 33.0 19.7 11.3 SSE 24.3 SSE 0.0
11:30 33.0 19.3 12.1 S 21.9 S 0.0
11:35 32.7 19.9 7.9 SSE 21.5 S 0.0
11:40 33.0 19.7 12.0 SSE 23.6 SSE 0.0
11:45 33.2 19.6 8.0 SE 21.5 SSE 0.0
11:50 33.7 19.5 9.1 SE 21.2 SSE 0.0
11:55 33.4 19.7 12.2 S 22.6 S 0.0
12:00 32.8 21.2 14.5 S 33.5 S 0.0
12:05 32.6 22.6 12.9 SSE 24.7 SE 0.0
12:10 32.6 21.8 14.2 SSE 24.0 SSW 0.0
12:15 32.9 21.2 11.1 S 22.6 S 0.0
12:20 32.8 21.5 10.7 SSE 20.1 SSE 0.0
12:25 32.9 20.9 12.4 SSE 20.8 S 0.0
Máxima 33.7 52.4 14.5 S 33.5 S 0.0
Mínima 19.1 18.7
Total 0.0